ZHONGXING-4A

Last updated on Thu Oct 30 2025 00:02:52 GMT+0000 (Coordinated Universal Time)

1 60606U 24151A 25302.53436274 -.00000355 00000+0 00000+0 0 9999 2 60606 1.9153 273.3911 0000781 345.4633 89.8480 1.00268008 4443
UTC large
Height (km)
Speed (km/s)
/
Latitude / Longitude
Inclination (degrees)
Orbital Period (minutes)
Azimuth
Elevation
Range (km)
Doppler Factor

Next 0 passes for location: London (51.5072 / 0.1276)

Sorry there are no passes over London.